| time (UTC) | temp F | wind direction | speed MPH | gust MPH | rain 1hr in | rain 24hr in | rain mn in | humidity % | barometer mb |
| 20260507190304 | 55 | 139 | 5.0 | 12.0 | 0.00 | 0.00 | 0.00 | 68 | 1014.4 |
| 20260507183312 | 57 | 147 | 6.0 | 12.0 | 0.00 | 0.00 | 0.00 | 66 | 1014.3 |
| 20260507180304 | 57 | 182 | 5.0 | 13.0 | 0.00 | 0.00 | 0.00 | 65 | 1013.9 |
| 20260507173305 | 59 | 153 | 4.0 | 9.0 | 0.00 | 0.00 | 0.00 | 60 | 1013.8 |
| 20260507170305 | 62 | 115 | 4.0 | 10.0 | 0.00 | 0.00 | 0.00 | 56 | 1013.8 |
| 20260507160305 | 58 | 138 | 2.0 | 4.0 | 0.00 | 0.00 | 0.00 | 63 | 1014.1 |
| 20260507150312 | 58 | 192 | 2.0 | 4.0 | 0.00 | 0.00 | 0.00 | 60 | 1014.4 |
| 20260507143303 | 58 | 0 | 2.0 | 4.0 | 0.00 | 0.00 | 0.00 | 60 | 1014.4 |
| 20260507140303 | 57 | 293 | 2.0 | 7.0 | 0.00 | 0.00 | 0.00 | 62 | 1014.4 |
| 20260507133307 | 58 | 258 | 3.0 | 7.0 | 0.00 | 0.00 | 0.00 | 62 | 1014.6 |
| 20260507130303 | 58 | 200 | 2.0 | 7.0 | 0.00 | 0.00 | 0.00 | 58 | 1014.6 |
| 20260507120307 | 60 | 74 | 5.0 | 13.0 | 0.00 | 0.00 | 0.00 | 57 | 1014.8 |
| 20260507110310 | 58 | 110 | 4.0 | 10.0 | 0.00 | 0.00 | 0.00 | 58 | 1015.0 |
| 20260507103304 | 57 | 64 | 4.0 | 8.0 | 0.00 | 0.00 | 0.00 | 61 | 1015.0 |
| 20260507100308 | 58 | 126 | 3.0 | 7.0 | 0.00 | 0.00 | 0.00 | 61 | 1015.2 |
| 20260507093304 | 56 | 196 | 4.0 | 10.0 | 0.00 | 0.00 | 0.00 | 64 | 1015.2 |
| 20260507090310 | 56 | 97 | 4.0 | 8.0 | 0.00 | 0.00 | 0.00 | 65 | 1015.0 |
| 20260507080312 | 53 | 172 | 4.0 | 10.0 | 0.00 | 0.00 | 0.00 | 73 | 1015.2 |
| 20260507073303 | 52 | 143 | 4.0 | 10.0 | 0.00 | 0.00 | 0.00 | 79 | 1015.1 |
| 20260507070303 | 49 | 84 | 0.0 | 6.0 | 0.00 | 0.00 | 0.00 | 86 | 1015.0 |
| 20260507063308 | 46 | 68 | 0.0 | 3.0 | 0.00 | 0.00 | 0.00 | 89 | 1014.9 |
| 20260507060303 | 44 | 39 | 0.0 | 2.0 | 0.00 | 0.00 | 0.00 | 89 | 1014.9 |
| 20260507053305 | 43 | 46 | 0.0 | 2.0 | 0.00 | 0.00 | 0.00 | 90 | 1014.7 |
| 20260507043300 | 42 | 22 | 0.0 | 0.0 | 0.00 | 0.00 | 0.00 | 88 | 1014.3 |
| 20260507040301 | 43 | 94 | 0.0 | 0.0 | 0.00 | 0.00 | 0.00 | 88 | 1014.2 |
| 20260507033305 | 44 | 98 | 0.0 | 0.0 | 0.00 | 0.00 | 0.00 | 87 | 1014.0 |
| 20260507030302 | 45 | 94 | 0.0 | 0.0 | 0.00 | 0.00 | 0.00 | 87 | 1013.9 |
| 20260507023258 | 46 | 97 | 0.0 | 0.0 | 0.00 | 0.00 | 0.00 | 86 | 1013.9 |
| 20260507020259 | 47 | 88 | 0.0 | 0.0 | 0.00 | 0.00 | 0.00 | 86 | 1013.9 |
| 20260507013258 | 47 | 39 | 0.0 | 0.0 | 0.00 | 0.00 | 0.00 | 86 | 1014.0 |
| 20260507010258 | 47 | 64 | 0.0 | 0.0 | 0.00 | 0.00 | 0.00 | 86 | 1014.2 |
| 20260507003304 | 47 | 38 | 0.0 | 0.0 | 0.00 | 0.00 | 0.00 | 86 | 1014.0 |
| 20260506233258 | 48 | 48 | 4.0 | 9.0 | 0.00 | 0.00 | 0.00 | 87 | 1014.0 |
| 20260506230305 | 48 | 35 | 2.0 | 6.0 | 0.00 | 0.00 | 0.00 | 86 | 1014.1 |
| 20260506223256 | 48 | 55 | 3.0 | 6.0 | 0.00 | 0.00 | 0.00 | 86 | 1013.9 |
| 20260506220256 | 48 | 45 | 3.0 | 8.0 | 0.00 | 0.00 | 0.00 | 85 | 1013.8 |
| 20260506213254 | 48 | 41 | 3.0 | 12.0 | 0.00 | 0.00 | 0.00 | 85 | 1013.7 |
| 20260506203255 | 48 | 37 | 5.0 | 14.0 | 0.00 | 0.00 | 0.00 | 84 | 1013.3 |
| 20260506200255 | 48 | 39 | 7.0 | 15.0 | 0.00 | 0.00 | 0.00 | 83 | 1013.2 |